Regional Weather Roundup
Issued by NWS

Home | Current Version | Previous Version | Text Only | Print | Product List | Glossary Off
Versions: 1 2 3 4 5 6 7 8 9 10 11 12 13 14 15 16 17 18 19 20 21 22 23 24 25 26 27 28 29 30 31 32 33 34 35 36 37 38 39 40 41 42 43 44 45 46 47 48 49 50

000
ASUS43 KTOP 250759
RWRKS

WEATHER ROUNDUP FOR KANSAS
NATIONAL WEATHER SERVICE GOODLAND KS
300 AM CDT WED MAY 25 2016

NOTE:  "FAIR" INDICATES FEW OR NO CLOUDS BELOW 12,000 FEET WITH NO
SIGNIFICANT WEATHER AND/OR OBSTRUCTIONS TO VISIBILITY.

KSZ001>006-013>018-027>032-041>047-250900-
NORTHWEST KANSAS

CITY           SKY/WX    TMP DP  RH WIND       PRES   REMARKS
GOODLAND       CLOUDY    58  57  97 SE12      29.77F
HAYS           PTCLDY    55  52  88 SE21      29.76F
HILL CITY      CLOUDY    63  55  75 SE16      29.73F
RUSSELL        CLOUDY    62  56  80 SE20      29.76F
$$

KSZ061>065-074>080-084>089-250900-
SOUTHWEST KANSAS

CITY           SKY/WX    TMP DP  RH WIND       PRES   REMARKS
DODGE CITY     CLOUDY    71  69  93 S16G24    29.76F
ELKHART          N/A     65  34  31 SW12        N/A
GARDEN CITY    PTCLDY    67  66  97 S9        29.74F FOG
GREAT BEND     CLOUDY    63  52  67 SE17      29.79F
LIBERAL        CLEAR     68  63  83 S10       29.80S
$$

KSZ066>073-081>083-090>101-250900-
SOUTHEAST KANSAS

CITY           SKY/WX    TMP DP  RH WIND       PRES   REMARKS
CHANUTE        CLOUDY    66  59  78 N15G25    29.94F
COFFEYVILLE    LGT RAIN  68  60  75 N10G22    29.94R
HUTCHINSON     CLOUDY    63  60  90 SE14      29.87R
MEDICINE LODGE   N/A     68  63  84 E8        29.82R
NEWTON         CLOUDY    61  57  88 SE20G26   29.90R
PARSONS        CLOUDY    68  60  75 N13       29.95R
WICHITA INTL   TSTM      63  61  93 SE22G28   29.88R
WICHITA JABRA  TSTM      62  62 100 SE17G28   29.91R FOG
WICHITA MCCONL TSTM      63  61  94 SE20      29.89F
WINFIELD       TSTM      64  63  96 E9G21     29.92S FOG
$$

KSZ007>012-019>026-033>040-048>060-102>105-250900-
NORTHEAST KANSAS

CITY           SKY/WX    TMP DP  RH WIND       PRES   REMARKS
CONCORDIA      CLOUDY    62  55  77 S17       29.76R
EMPORIA        LGT RAIN  62  60  93 SE12      29.96R
LAWRENCE         N/A     64  62  93 W9        29.95R
MANHATTAN        N/A     63  32  31 SE6       29.85
OLATHE IND     TSTM      63  62  97 NW5       29.95F
OLATHE EXE     TSTM      63  61  93 W5        29.96R FOG
SALINA         CLOUDY    63  60  90 SE12      29.82F
TOPEKA BILLARD TSTM      64  61  90 CALM      29.92S FOG
TOPEKA FORBES  RAIN      63  61  93 SE9       29.89F FOG
$$



USA.gov is the U.S. government's official web portal to all federal, state and local government web resources and services.